This is the latest recevied weather packets stored in our database for station/object KB1JLI. If no packets are shown the sender has not sent any weather packets the latest 10 day(s).
| Time | Temp. | Humidity | Pressure | Rain* | Wind** | Luminosity | Snow |
|---|---|---|---|---|---|---|---|
| 1777821018 | 8.89° C | 73% | 1005.8 hPa | 0 mm | - | 217 W/m² | - |
| 1777820715 | 8.89° C | 73% | 1005.8 hPa | 0 mm | - | 263 W/m² | - |
| 1777820411 | 8.89° C | 75% | 1005.9 hPa | 0 mm | - | 97 W/m² | - |
| 1777820108 | 8.89° C | 75% | 1005.7 hPa | 0 mm | - | 84 W/m² | - |
| 1777819805 | 8.89° C | 76% | 1005.8 hPa | 0 mm | - | 118 W/m² | - |
| 1777819503 | 8.33° C | 76% | 1005.7 hPa | 0 mm | - | 106 W/m² | - |
| 1777819200 | 8.33° C | 77% | 1005.7 hPa | 0 mm | - | 60 W/m² | - |
| 1777818896 | 8.33° C | 77% | 1005.7 hPa | 0 mm | - | 155 W/m² | - |
| 1777818593 | 8.33° C | 78% | 1005.9 hPa | 0 mm | - | 135 W/m² | - |
| 1777818290 | 8.33° C | 78% | 1005.9 hPa | 0 mm | - | 162 W/m² | - |
| 1777817986 | 7.78° C | 78% | 1005.9 hPa | 0 mm | - | 99 W/m² | - |
| 1777817684 | 7.78° C | 79% | 1006.1 hPa | 0 mm | - | 55 W/m² | - |
| 1777817381 | 7.78° C | 78% | 1005.9 hPa | 0 mm | - | 71 W/m² | - |
| 1777817077 | 7.78° C | 78% | 1006 hPa | 0 mm | - | 127 W/m² | - |
| 1777816774 | 7.78° C | 79% | 1006 hPa | 0 mm | - | 173 W/m² | - |
| 1777816472 | 7.78° C | 79% | 1006 hPa | 0 mm | - | 140 W/m² | - |
| 1777816169 | 7.78° C | 79% | 1006 hPa | 0 mm | - | 110 W/m² | - |
| 1777815867 | 7.78° C | 80% | 1006.1 hPa | 0 mm | - | 63 W/m² | - |
| 1777815564 | 7.22° C | 81% | 1006.3 hPa | 0 mm | - | 65 W/m² | - |
| 1777815262 | 7.22° C | 81% | 1006.2 hPa | 0 mm | - | 78 W/m² | - |
| 1777814957 | 7.22° C | 82% | 1006.2 hPa | 0 mm | - | 66 W/m² | - |
| 1777814654 | 7.22° C | 82% | 1006.1 hPa | 0 mm | - | 34 W/m² | - |
| 1777814350 | 7.22° C | 82% | 1006.4 hPa | 0 mm | - | 51 W/m² | - |
| 1777814048 | 7.22° C | 82% | 1006.4 hPa | 0 mm | - | 53 W/m² | - |
| 1777813745 | 7.22° C | 82% | 1006.4 hPa | 0 mm | - | 77 W/m² | - |
* Rain latest hour (hover to see other rain measurements)
** Current wind speed in m/s (hover to see current wind gust speed)